Regional Weather Roundup
Issued by NWS

Home | Current Version | Previous Version | Graphics & Text | Print | Product List | Glossary Off
Versions: 1 2 3 4 5 6 7 8 9 10 11 12 13 14 15 16 17 18 19 20 21 22 23 24 25 26 27 28 29 30 31 32 33 34 35 36 37 38 39 40 41 42 43 44 45 46 47 48 49 50

000
ASUS43 KMKX 261721
RWRWI

WISCONSIN REGIONAL WEATHER ROUNDUP
NATIONAL WEATHER SERVICE MILWAUKEE/SULLIVAN WI
1100 AM CST MON JAN 26 2015

NOTE: "FAIR" INDICATES FEW OR NO CLOUDS BELOW 12,000 FEET WITH NO
SIGNIFICANT WEATHER AND/OR OBSTRUCTIONS TO VISIBILITY.

WIZ001-002-006>008-014>016-023>028-261800-
NORTHWEST WISCONSIN

CITY           SKY/WX    TMP DP  RH WIND       PRES   REMARKS
SUPERIOR ARPT  MIX PCPN  25  23  94 CALM      29.70R VSB 1
ASHLAND        FLURRIES  23  19  85 S6        29.72R WCI  16
HAYWARD        LGT SNOW  21  18  88 S8        29.70R VSB 3/4 WCI  11
SIREN          MIX PCPN  27  26  96 CALM      29.69R
CUMBERLAND     MIX PCPN  23  23 100 S6        29.69R WCI  16
RICE LAKE      LGT SNOW  23  21  93 SE8       29.73R WCI  14
CHETEK         LGT SNOW  21  20  95 SE6       29.72R WCI  14
LADYSMITH      DRIZZLE   21  19  93 SE6       29.74S WCI  13
EAU CLAIRE     CLOUDY    23  20  88 S8        29.73S FOG     WCI  14
MENOMONIE      CLOUDY    26  24  93 E8        29.72R FOG     WCI  17
NEW RICHMOND   CLOUDY    32  29  90 SW7       29.70R WCI  25
OSCEOLA        CLOUDY    32  31  96 CALM      29.73R
$$

WIZ003>005-009-010-017-018-261800-
NORTH CENTRAL WISCONSIN

CITY           SKY/WX    TMP DP  RH WIND       PRES   REMARKS
MANITOWISH WTR LGT SNOW  16  13  86 S10       29.71S WCI   4
ARBOR VITAE    LGT SNOW  19  15  84 S9        29.72F WCI   8
WOODRUFF       LGT SNOW  19  15  84 S9        29.72F WCI   8
RHINELANDER    LGT SNOW  16  12  84 SE9       29.74F VSB 1   WCI   4
EAGLE RIVER    LGT SNOW  16  11  81 S8        29.74S VSB 1   WCI   5
LAND O LAKES   LGT SNOW  17  13  84 S7        29.74S VSB 1   WCI   8
PHILLIPS       MIX PCPN  18  16  93 SE7       29.70F WCI   9
TOMAHAWK       LGT SNOW  16  13  86 CALM      29.76S
MEDFORD        MIX PCPN  18  15  91 S9        29.73S WCI   6
MERRILL        LGT SNOW  17  14  86 SE6       29.78R WCI   9
$$

WIZ029-030-035-036-043>047-261800-
CENTRAL WISCONSIN

CITY           SKY/WX    TMP DP  RH WIND       PRES   REMARKS
WAUSAU         LGT SNOW  18  14  84 SE7       29.78R FOG     WCI   9
MOSINEE        LGT SNOW  18  16  93 SE10      29.78F WCI   6
MARSHFIELD     LGT SNOW  19  16  88 S9        29.76S VSB 3/4 WCI   8
STEVENS POINT  FLURRIES  16  13  86 SE8       29.81S WCI   5
WAUPACA        LGT SNOW  22  17  78 SE7       29.85F WCI  14
WAUTOMA        LGT SNOW  21  18  86 SE9       29.84F FOG     WCI  11
WISC RAPIDS    LGT SNOW  20  15  81 S8        29.80F WCI  10
CAMP DOUGLAS   LGT SNOW  21  21 100 SE9       29.79F FOG     WCI  11
$$

WIZ011>013-019>022-031-037>040-048>050-261800-
NORTHEAST WISCONSIN

CITY           SKY/WX    TMP DP  RH WIND       PRES   REMARKS
ANTIGO         LGT SNOW  14  11  89 SE12      29.79S VSB 3/4 WCI   0
SHAWANO        CLOUDY    23  15  71 S7        29.87S WCI  14
OCONTO         CLOUDY    21  17  83 CALM      29.90R
STURGEON BAY   CLOUDY    25  16  68 S10       29.91S WCI  15
GREEN BAY      CLOUDY    24  17  74 S13       29.88F WCI  12
MANITOWOC      CLOUDY    27  20  75 S13       29.90S WCI  16
APPLETON       CLOUDY    21  12  68 S10       29.86F WCI  10
CLINTONVILLE   LGT SNOW  21  16  79 S8        29.86F WCI  12
OSHKOSH        CLOUDY    24  16  71 S12       29.87S WCI  13
$$

WIZ032>034-041-042-053>061-261800-
SOUTHWEST WISCONSIN

CITY           SKY/WX    TMP DP  RH WIND       PRES   REMARKS
LA CROSSE      CLOUDY    25  20  81 S14       29.78F WCI  13
SPARTA         CLOUDY    24  19  83 S5        29.80R WCI  18
VIROQUA        CLOUDY    22  20  92 S12       29.75F WCI  10
BOSCOBEL       CLOUDY    24  17  74 VRB7      29.84F WCI  16
PRAIRIE DU CHI CLOUDY    25  20  80 SE5       29.81F WCI  19
PLATTEVILLE    CLOUDY    21  18  90 SE13      29.83F WCI   8
$$

WIZ056-057-062-063-064-067-068-261800-
SOUTH CENTRAL WISCONSIN

CITY           SKY/WX    TMP DP  RH WIND       PRES   REMARKS
REEDSBURG      FLURRIES  20  17  86 S7        29.81F WCI  11
BARABOO/DELLS  LGT SNOW  20  17  86 S10       29.82F WCI   9
LONE ROCK      LGT SNOW  22  17  81 SE5       29.83F WCI  16
MINERAL POINT  LGT SNOW  21  19  93 S13       29.82F WCI   9
MADISON        LGT SNOW  20  16  84 S10       29.86F FOG     WCI   9
MIDDLETON      CLOUDY    21  16  82 S9        29.86F WCI  11
WATERTOWN      LGT SNOW  23  18  79 S8        29.88S WCI  14
MONROE         CLOUDY    21  18  86 S12       29.86S WCI   9
JANESVILLE     CLOUDY    21  18  86 S5        29.89F VSB 3/4 WCI  15
$$

WIZ051-052-058>065-066-070>072-261800-
SOUTHEAST WISCONSIN

CITY           SKY/WX    TMP DP  RH WIND       PRES   REMARKS
MILWAUKEE      PTSUNNY   26  15  63 S8        29.90F WCI  18
WAUKESHA       MOSUNNY   18  14  86 S7        29.90F WCI   8
MILWAUKEE/TIMM MOSUNNY   25  16  68 S9        29.90F WCI  15
RACINE         CLOUDY    26  15  63 S7        29.93F WCI  18
BURLINGTON     PTSUNNY   24  17  75 S9        29.90F WCI  14
KENOSHA        PTSUNNY   26  17  68 S8        29.91F WCI  18
FOND DU LAC    CLOUDY    24  15  68 S16       29.88S WCI  11
SHEBOYGAN      CLOUDY    26  17  68 S12       29.89F WCI  16
WEST BEND      CLOUDY    25  16  68 S7        29.88F WCI  17
JUNEAU         LGT SNOW  22  18  83 S10       29.88S WCI  11
$$

LSZ147-162-261800-
LAKE SUPERIOR

STATION/POSITION TIME  TEMP    WIND        PRES    WAVE
                       AIR SEA DIR/SP/G            HT/PER
                 (UTC) (F)     (DEG/KT/KT) (MB)    (FT/S)
DEVILS ISLAND    1700   22     160/  6/  9 1007.6R
PORT WING        1640   24     160/  5/  7 1006.1S
SAXON HARBOR     1600   22     180/  3/  8 1006.4R
$$

LMZ867-665-643>646-261800-
LAKE MICHIGAN

STATION/POSITION TIME  TEMP    WIND        PRES    WAVE
                       AIR SEA DIR/SP/G            HT/PER
                 (UTC) (F)     (DEG/KT/KT) (MB)    (FT/S)
NORTHPORT PIER   1617   22     150/  2/  6 1013.5R
SISTER BAY       1613   24     200/  8/  9   N/A
KEWAUNEE LAKESHO 1700   25     180/ 12/ 16 1011.7F
SHEBOYGAN LAKESH 1700   25     180/ 15/ 16 1013.5F
PORT WASHINGTON  1600   26     200/  6/ 10 1014.2F
MILWAUKEE LAKESH 1700   25     170/  9/ 11   N/A
KENOSHA   LAKESH 1700   25     160/  8/ 11 1013.2F
$$

TC  - TEMPERATURE IN CELSIUS
VSB - VISIBILITY IN STATUTE MILES
WCI - WIND CHILL INDEX
HX  - HEAT INDEX




USA.gov is the U.S. government's official web portal to all federal, state and local government web resources and services.